DLH453 KLAX-EDDM

Flight info

Callsign DLH453
Flight time N/A
Altitude 35000
Route DOTSS2 CNERY DCT BLH J169 KOFFA J65 PXR DCT KA21Q DCT KA27U DCT KK36A DCT KK48G DCT SPI DCT GIJ DCT SVM/N0497F370 DCT DERLO Q907 SIKBO DCT IPTOS DCT KEMVI Q852 TAMKO Q941 AGLUK DCT BAREE N793B JANJO/M085F380 DCT 56N050W 57N040W 58N030W 58N020W DCT SUNOT DCT KESIX/N0492F390 DCT IBROD DCT NAVSO DCT TOPPA DCT DODEN/N0451F330 DCT TABUM DCT BOMBI T104 HAREM/N0410F270 T104 ROKIL ROKIL1B
Aircraft A388/J-SADE2E3FGHIJ3J4J5M1RWXY/LB1D1

Departure

Time 2026-05-07 05:27
Airport Los Angeles International Airport (KLAX)

Arrival

Time N/A
Airport Munich Airport (EDDM)
Time Latitude Longitude Altitude Speed Heading
2026-05-07 05:23 33.94107 -118.41198 131 ft 1 kts 353°
2026-05-07 05:24 33.94186 -118.41209 128 ft 32 kts 353°
2026-05-07 05:24 33.94421 -118.41242 128 ft 33 kts 353°
2026-05-07 05:25 33.94641 -118.41277 126 ft 31 kts 352°
2026-05-07 05:25 33.94785 -118.41272 125 ft 13 kts 47°
2026-05-07 05:25 33.94811 -118.41132 130 ft 20 kts 84°
2026-05-07 05:25 33.94827 -118.40961 127 ft 19 kts 73°
2026-05-07 05:26 33.94848 -118.40922 126 ft 10 kts 33°
2026-05-07 05:26 33.94926 -118.40958 128 ft 17 kts 283°
2026-05-07 05:26 33.94890 -118.41396 128 ft 91 kts 264°
2026-05-07 05:26 33.94790 -118.42394 126 ft 146 kts 263°
2026-05-07 05:27 33.94641 -118.43765 179 ft 176 kts 260°
2026-05-07 05:27 33.94485 -118.45158 860 ft 164 kts 262°
2026-05-07 05:27 33.94351 -118.46506 1481 ft 163 kts 264°
2026-05-07 05:27 33.94234 -118.47878 1952 ft 173 kts 265°
2026-05-07 05:28 33.94162 -118.49428 2090 ft 195 kts 269°
2026-05-07 05:28 33.93979 -118.51110 2196 ft 210 kts 246°
2026-05-07 05:28 33.93039 -118.52477 2318 ft 220 kts 213°
2026-05-07 05:28 33.91636 -118.53027 2431 ft 231 kts 183°
2026-05-07 05:29 33.89929 -118.52891 2729 ft 255 kts 172°
2026-05-07 05:29 33.88147 -118.52603 3341 ft 263 kts 173°
2026-05-07 05:29 33.86372 -118.52066 3972 ft 271 kts 153°
2026-05-07 05:29 33.84917 -118.50594 4631 ft 277 kts 125°
2026-05-07 05:30 33.84151 -118.48463 5260 ft 280 kts 97°
2026-05-07 05:30 33.84214 -118.46166 5999 ft 276 kts 77°
2026-05-07 05:30 33.84680 -118.43896 6698 ft 276 kts 72°
2026-05-07 05:30 33.85149 -118.41680 7394 ft 275 kts 75°
2026-05-07 05:31 33.85539 -118.39422 8128 ft 274 kts 77°
2026-05-07 05:31 33.85852 -118.37183 8858 ft 274 kts 79°
2026-05-07 05:31 33.86128 -118.34913 9582 ft 273 kts 80°
2026-05-07 05:31 33.86387 -118.32637 10272 ft 274 kts 80°
2026-05-07 05:32 33.86649 -118.30304 10616 ft 286 kts 80°
2026-05-07 05:32 33.86914 -118.27935 11140 ft 289 kts 81°
2026-05-07 05:32 33.87184 -118.25518 11559 ft 295 kts 81°
2026-05-07 05:32 33.87465 -118.23021 11668 ft 310 kts 81°
2026-05-07 05:33 33.87761 -118.20385 11802 ft 328 kts 81°
2026-05-07 05:33 33.88069 -118.17636 12274 ft 334 kts 81°
2026-05-07 05:33 33.88380 -118.14837 12857 ft 337 kts 81°
2026-05-07 05:33 33.88693 -118.12023 13443 ft 340 kts 81°
2026-05-07 05:34 33.89336 -118.09289 13993 ft 341 kts 62°
2026-05-07 05:34 33.92017 -118.04851 14981 ft 346 kts 52°
2026-05-07 05:34 33.95017 -118.00140 16029 ft 351 kts 52°
2026-05-07 05:34 33.98798 -117.94083 17430 ft 359 kts 52°
2026-05-07 05:35 34.01827 -117.89213 18539 ft 366 kts 52°
2026-05-07 05:35 34.06264 -117.82073 20081 ft 373 kts 52°
2026-05-07 05:35 34.12586 -117.72244 22134 ft 384 kts 49°
2026-05-07 05:35 34.16023 -117.67240 23106 ft 390 kts 49°
2026-05-07 05:36 34.19451 -117.62167 23939 ft 397 kts 49°
2026-05-07 05:36 34.25522 -117.53132 25435 ft 402 kts 49°
2026-05-07 05:36 34.32659 -117.42478 26703 ft 410 kts 49°
2026-05-07 05:36 34.39854 -117.31714 28096 ft 418 kts 49°
2026-05-07 05:37 34.47482 -117.20265 28285 ft 456 kts 50°
2026-05-07 05:37 34.54051 -117.10374 28369 ft 487 kts 50°
2026-05-07 05:37 34.56201 -117.07169 28707 ft 490 kts 49°
2026-05-07 05:37 34.58337 -117.03864 29062 ft 493 kts 53°